Regional Weather Roundup
Issued by NWS

Home | Current Version | Previous Version | Graphics & Text | Print | Product List | Glossary On
Versions: 1 2 3 4 5 6 7 8 9 10 11 12 13 14 15 16 17 18 19 20 21 22 23 24 25 26 27 28 29 30 31 32 33 34 35 36 37 38 39 40 41 42 43 44 45 46 47 48 49 50
000
ASUS45 KTFX 310210
RWRMT
MONTANA REGIONAL WEATHER ROUNDUP
NATIONAL WEATHER SERVICE GREAT FALLS MT
800 PM MDT SUN AUG 30 2015

NOTE: "FAIR" INDICATES FEW OR NO CLOUDS BELOW 12000 FEET WITH NO
SIGNIFICANT WEATHER AND/OR OBSTRUCTIONS TO VISIBILITY.

MTZ001>007-043-310300-
WEST OF THE DIVIDE

CITY           SKY/WX    TMP DP  RH WIND       PRES   REMARKS
KALISPELL      CLOUDY    59  40  49 S16       29.91S
MISSOULA       CLOUDY    54  47  77 N5        30.05R
BUTTE          MOCLDY    65  28  24 W15G23    29.94S
MULLAN PASS    CLOUDY    41  40  96 S8G22     30.02S
DEER LODGE       N/A     55  39  54 NW25G38   29.97R
EUREKA           N/A     57  39  51 S9        29.92R
HAMILTON         N/A     55  41  58 N7        30.03R
LIBBY            N/A     54  45  71 CALM      29.93S
PLAINS           N/A     59  42  53 CALM      29.99R
RONAN            N/A     56  45  66 S5        30.05R
$$

MTZ008-052>055-310300-
SOUTHWEST MONTANA

CITY           SKY/WX    TMP DP  RH WIND       PRES   REMARKS
BOZEMAN        CLOUDY    66  41  40 NW13G22   29.87R HAZE
DILLON         MOCLDY    66  24  20 W15G24    29.90R
W YELLOWSTONE  PTCLDY    63  19  19 SW15G21   30.04S
$$

MTZ009-010-012-014-046-048-049-054-310300-
EAST SLOPES AND CENTRAL MONTANA

CITY           SKY/WX    TMP DP  RH WIND       PRES   REMARKS
CUT BANK       MOCLDY    56  38  50 W28G37    29.81F
GREAT FALLS    CLOUDY    63  37  38 W18G28    29.79S
MALMSTROM AFB  CLOUDY    65  38  36 W16G25    29.81R
HELENA         CLOUDY    67  40  37 SW12      29.86F
CONRAD           N/A     61  44  53 SW13      29.86R
$$

MTZ011-013-016-021-045-047-050-051-310300-
NORTH CENTRAL MONTANA

CITY           SKY/WX    TMP DP  RH WIND       PRES   REMARKS
HAVRE          CLOUDY    72  40  31 MISG      29.73R
LEWISTOWN      MOCLDY    65  53  65 SE8       29.81R
N BAR RANCH      N/A     55  52  88 W3        29.83F
CHINOOK          N/A     73  39  29 W16       29.71R
FORT BENTON      N/A     68  39  34 NW10      29.80R
$$

MTZ017>020-022>027-061-062-310300-
NORTHEAST MONTANA

CITY           SKY/WX    TMP DP  RH WIND       PRES   REMARKS
GLASGOW        MOCLDY    74  48  39 W5        29.71R
JORDAN           N/A     72  50  45 NW21G31   29.76R
SIDNEY         MOCLDY    72  46  40 CALM      29.70R
WOLF POINT     CLOUDY    78  50  37 NW8       29.68F
MALTA            N/A     68  57  67 S12       29.68R
PLENTYWOOD       N/A     77  48  36 SE6       29.71S
POPLAR           N/A     75  48  38 E9        29.69S
$$

MTZ028>42-056>058-310300-
SOUTHCENTRAL AND SOUTHEAST MONTANA

CITY           SKY/WX    TMP DP  RH WIND       PRES   REMARKS
BAKER          CLOUDY    74  52  46 E5        29.74F
BILLINGS       MOCLDY    81  47  30 CALM      29.73S
LIVINGSTON     CLEAR     77  20  12 SW33G41   29.78R
MILES CITY     CLOUDY    75  55  49 SE7       29.70R THUNDER
FORSYTH          N/A     79  50  36 SE7       29.70R
LAUREL           N/A     79  48  33 CALM      29.75S
$$

REGIONAL REPORTS...DAKOTAS

CITY           SKY/WX    TMP DP  RH WIND       PRES   REMARKS
WILLISTON      PTCLDY    71  48  43 CALM      29.71S
MINOT          CLOUDY    74  55  51 NW8       29.67R
DICKINSON      MOCLDY    74  49  41 N9        29.71F
CROSBY           N/A     64  50  59 CALM      29.71S
BISMARCK       CLEAR     85  54  34 N13       29.64R
GRAND FORKS    MOCLDY    78  69  73 S15       29.65S
FARGO          MOCLDY    78  68  71 SE18G24   29.71S
BUFFALO SD       N/A     78  54  43 NE9       29.67F
RAPID CITY     MOCLDY    73  59  61 N13       29.80R
$$

REGIONAL REPORTS...WYOMING/IDAHO/WASHINGTON

CITY           SKY/WX    TMP DP  RH WIND       PRES   REMARKS
GILLETTE       CLOUDY    70  55  59 S8        29.81F
SHERIDAN       CLOUDY    74  53  48 E6        29.78F
BUFFALO WY     LGT RAIN  76  46  34 W7        29.89R
CODY           MOCLDY    79  34  19 SW15G21   29.86R
YELLOWSTONE LA   N/A     58  29  33 VRB5      30.15S
IDAHO FALLS    PTCLDY    71  28  20 SW10G21   29.98S
SALMON         PTCLDY    70  27  19 W12G21    29.91R
BOISE          CLEAR     76  38  25 N7        29.94F
SPOKANE        PTCLDY    64  38  38 SW17      29.92S
$$

REGIONAL REPORTS...ALBERTA

CITY           SKY/WX    TMP DP  RH WIND       PRES   REMARKS
EDMONTON       CLEAR     66  41  39 NW3       29.50S
LETHBRIDGE     PTCLDY    61  37  41 SW23G31   29.72F
MEDICINE HAT   MOCLDY    68  39  34 SW22G31   29.65S
WATERTON GATE    N/A     48  41  76 SW14G22     N/A
CARDSTON         N/A     55  34  44 W6          N/A
MILK RIVER       N/A     61  36  39 W17G25      N/A
$$

REGIONAL REPORTS...SASKATCHEWAN

CITY           SKY/WX    TMP DP  RH WIND       PRES   REMARKS
SWIFT CURRENT  CLEAR     66  39  37 SW8       29.64F HAZE
REGINA         PTCLDY    64  57  77 SE9       29.67R
SASKATOON      PTCLDY    66  43  42 SW9       29.56S
CYPRESS HILLS    N/A     64  34  32 W9G20       N/A
VAL MARIE        N/A     68  48  49 SE7         N/A
ROCKGLEN         N/A     66  54  63 SW5         N/A
ASSINIBOIA       N/A     68  41  37 NW8         N/A
$$



USA.gov is the U.S. government's official web portal to all federal, state and local government web resources and services.